TimeMST,TemperatureF,Dew PointF,Humidity,Sea Level PressureIn,VisibilityMPH,Wind Direction,Wind SpeedMPH,Gust SpeedMPH,PrecipitationIn,Events,Conditions,WindDirDegrees,DateUTC
12:53 AM,-0.9,-4.0,87,30.36,3.0,Calm,Calm,-,N/A,,Clear,0,2013-01-10 07:53:00
1:53 AM,1.0,-2.9,83,30.33,4.0,Calm,Calm,-,N/A,,Clear,0,2013-01-10 08:53:00
2:53 AM,1.0,-2.9,83,30.30,3.0,Calm,Calm,-,N/A,,Clear,0,2013-01-10 09:53:00
3:53 AM,1.9,-2.0,83,30.27,6.0,Calm,Calm,-,N/A,,Clear,0,2013-01-10 10:53:00
4:53 AM,3.9,-0.0,84,30.24,5.0,Calm,Calm,-,N/A,,Clear,0,2013-01-10 11:53:00
5:53 AM,5.0,1.0,84,30.21,5.0,Calm,Calm,-,N/A,,Clear,0,2013-01-10 12:53:00
6:53 AM,6.1,1.9,83,30.18,4.0,Calm,Calm,-,N/A,,Clear,0,2013-01-10 13:53:00
7:53 AM,7.0,3.0,84,30.16,4.0,Calm,Calm,-,N/A,,Mostly Cloudy,0,2013-01-10 14:53:00
8:53 AM,8.1,3.9,83,30.16,2.5,Calm,Calm,-,N/A,,Mostly Cloudy,0,2013-01-10 15:53:00
9:08 AM,8.6,3.2,79,29.91,3.0,Calm,Calm,-,N/A,,Overcast,0,2013-01-10 16:08:00
9:53 AM,3.9,1.0,88,30.16,3.0,ENE,4.6,-,N/A,,Overcast,60,2013-01-10 16:53:00
10:53 AM,7.0,3.0,84,30.11,4.0,Calm,Calm,-,N/A,,Mostly Cloudy,0,2013-01-10 17:53:00
11:53 AM,12.0,5.0,73,30.01,5.0,Calm,Calm,-,N/A,,Haze,0,2013-01-10 18:53:00
12:53 PM,14.0,6.1,71,29.98,5.0,ESE,3.5,-,N/A,,Haze,120,2013-01-10 19:53:00
1:53 PM,12.0,5.0,73,29.94,6.0,East,3.5,-,N/A,,Haze,100,2013-01-10 20:53:00
2:53 PM,14.0,6.1,71,29.90,6.0,Calm,Calm,-,N/A,,Haze,0,2013-01-10 21:53:00
3:53 PM,15.1,8.1,74,29.86,6.0,Calm,Calm,-,N/A,,Haze,0,2013-01-10 22:53:00
4:53 PM,16.0,9.0,74,29.81,5.0,East,3.5,-,N/A,,Haze,80,2013-01-10 23:53:00
5:53 PM,12.9,7.0,77,29.80,6.0,East,4.6,-,N/A,,Haze,80,2013-01-11 00:53:00
6:53 PM,12.0,6.1,77,29.77,6.0,NE,3.5,-,N/A,,Haze,50,2013-01-11 01:53:00
7:53 PM,10.9,6.1,81,29.72,5.0,NW,3.5,-,N/A,,Haze,310,2013-01-11 02:53:00
8:53 PM,12.0,7.0,80,29.70,4.0,SE,8.1,-,N/A,,Haze,140,2013-01-11 03:53:00
9:23 PM,12.2,8.6,85,29.49,1.5,Calm,Calm,-,0.00,Snow,Light Snow,0,2013-01-11 04:23:00
9:26 PM,12.2,8.6,85,29.49,0.8,WNW,6.9,-,0.00,Snow,Light Snow,300,2013-01-11 04:26:00
9:46 PM,15.8,12.2,86,29.47,0.2,NW,6.9,-,0.03,Fog-Snow,Heavy Snow,320,2013-01-11 04:46:00
9:53 PM,17.1,14.0,88,29.66,0.2,NW,8.1,-,0.05,Fog-Snow,Heavy Snow,310,2013-01-11 04:53:00
10:00 PM,17.6,15.8,93,29.46,0.5,NW,9.2,-,0.01,Fog-Snow,Snow,320,2013-01-11 05:00:00
10:20 PM,12.2,10.4,92,29.47,1.0,SSE,4.6,-,0.02,Snow,Light Snow,150,2013-01-11 05:20:00
10:27 PM,10.4,8.6,92,29.47,0.5,SSE,6.9,-,0.03,Fog-Snow,Snow,150,2013-01-11 05:27:00
10:53 PM,10.9,8.1,88,29.66,0.5,SSE,3.5,-,0.10,Fog-Snow,Snow,160,2013-01-11 05:53:00
11:14 PM,10.4,8.6,92,29.45,0.5,Calm,Calm,-,0.03,Fog-Snow,Snow,0,2013-01-11 06:14:00
11:30 PM,10.4,8.6,92,29.46,1.5,Calm,Calm,-,0.03,Snow,Light Snow,0,2013-01-11 06:30:00
11:40 PM,12.2,8.6,85,29.44,0.5,NNW,6.9,-,0.05,Fog-Snow,Snow,330,2013-01-11 06:40:00
11:53 PM,12.0,10.0,92,29.62,0.5,Variable,3.5,-,0.06,Fog-Snow,Snow,0,2013-01-11 06:53:00